COSMOS 252 DEB *, 3690

Orbit data source: Space-Track

COSMOS 252 DEB *, 3690 is space debris in LEO originally from a launch on Fri, 01 Nov 1968 UTC launched from the Tyuratam Missile And Space Complex (TTMTR). Debris objects in space refer to the collection of defunct objects orbiting the Earth. Examples of debris include non-operational satellites, rocket bodies, and fragments generated from explosions, collisions, or faulty payload assembly.

Loading next visibility...
COSMOS 252 DEB * details
Identifier
3690, 1968-097AH
Orbit
LEO
Last TLE update1 day ago
Origin
Flag of CISPKO (CIS)
ManufacturerUnknown
MissionSpacecraft
Bus & MotorUnknown
MassUnknown
Launch date (UTC)
1968-11-01 (56 years ago)
Launch vehicleUnknown
Launch site
Tyuratam Missile And Space Complex (TTMTR)
Object type
Payload
Rocket body
Debris
Shape & HBRUnknown
Radar Cross SectionSmall (<0.1 m²)

Expand to show TLE details & history

TLE from 1 day ago
0 COSMOS 252 DEB *
1 03690U 68097AH  24347.81675202  .00000384  00000-0  42224-3 0  9991
2 03690  62.3403 295.0153 0799136 145.1650 220.4436 12.89782745601023
Epoch: 2024-12-12T19:36Z
Definitive object data (Epoch: 2024-12-12T19:36:07.374Z)
Latitude-0°
Longitude-81.00708°
Altitude1,790.069 km
Speed6.763 km/s
True Right ascension19h 40m 03s
True Declination0° 00' 00"
Sunlit
Object was in daylight at TLE epoch
Visualization TLE readout
Latitude-54.06595°
Longitude142.42649°
Altitude1,385.238 km
Speed7.137 km/s
Apparent Right ascension08h 58m 52s
Apparent Declination-49° 50' 29"
Sunlit
Object is in daylight
Visualization observer readout
Local Sidereal Time19:30:48
Azimuth230.047° WSW
Elevation-71.614°
Doppler factor1
Orbital elements
Apogee altitude1,915.064 km
Perigee altitude687.671 km
Semi-major axis7,679.505 km
Eccentricity0.0799136
Inclination62.3403°
RAAN295.0153°
Arg. of periapsis145.165°
True anomaly214.93236°
Mean anomaly220.4436°
Eccentric anomaly217.64695°
Mean motion3.2251 °/min
BSTAR0.00042224
Orbital period111.62 mins
Loading maneuver chart data...

COSMOS 252 DEB * Visibility forecast

Observer location: undefined°, undefined

Span
Click to sort rows by Start time (UTC) header in descending order
Start Az.
Max El. time (UTC)
Max El. Az.
Max El.
End time (UTC)
End Az.
16 mins2024-12-13 21:44:08.306Z190.168° SSW2024-12-13 21:53:08.306Z115.829° SE38.161°2024-12-13 22:00:08.306Z46.22° ENE
13 mins2024-12-13 23:42:08.306Z249.629° W2024-12-13 23:49:08.306Z320.965° NNW33.654°2024-12-13 23:55:08.306Z23.205° NE
4 mins2024-12-14 01:44:08.306Z319.706° NNW2024-12-14 01:46:08.306Z337.267° NNW12.286°2024-12-14 01:48:08.306Z356.008° N
6 mins2024-12-14 05:40:08.306Z358.276° N2024-12-14 05:43:08.306Z43.316° NE20.276°2024-12-14 05:46:08.306Z85.371° E
7 mins2024-12-14 07:35:08.306Z308.09° NW2024-12-14 07:38:08.306Z250.705° W36.769°2024-12-14 07:42:08.306Z169.089° S
7 mins2024-12-14 20:07:08.306Z129.255° SE2024-12-14 20:10:08.306Z108.933° ESE14.354°2024-12-14 20:14:08.306Z80.022° E
|